www.pogodaiklimat.ru

Погода и климат >> Архив погоды >> Аргентина >> Сан-Фернандо-дель-Валье-де-Катамарка


ПОГОДА в Сан-Фернандо-дель-Валье-де-Катамарке

  • Прогноз погоды в Сан-Фернандо-дель-Валье-де-Катамарке
  • Монитор погоды в Сан-Фернандо-дель-Валье-де-Катамарке

АРХИВ ПОГОДЫ в Сан-Фернандо-дель-Валье-де-Катамарке

Время (UTC), дата Ветер
(напр.,м/с)
 
Видим.   Явления Облачность Т
(С)
Тd
(С)
f
(%)
Тe
(С)
Тes
(С)
Комфортность P
(гПа)
Po
(гПа)
Тmin
(С)
Tmax
(С)
R
(мм)
R24
(мм)
S
(см)
12 12.08 СВ 3 20 км 1/1 1200 м
[Sc diur, vesp]
+4.8 -2.2 60 +2 +3 1023.4 967.8 -0.8 +13.4
15 12.08 В 2 20 км ясно +17.9 -1.7 26 +19 +30 1024.4 969.8
18 12.08 СЗ 1 20 км 1/1 1500 м
[Sc]
+22.0 +0.9 25 +22 +32 комфорт 1021.9 967.7
21 12.08 В 6 15 км дым 9/9 1500 м
[Sc]
+20.4 -0.1 25 +20 +20 1023.5 968.4
00 13.08 С 2 20 км 10/10 1500 м
[Sc]
+17.8 -0.7 29 +19 +19 1027.7 972.4 +4.8 +25.0
03 13.08 СВ 6 20 км 9/6 1500 м
[Sc Ac und]
+15.6 -9.4 17 +14 +14 1028.8 974.4
06 13.08 С 8 20 км 10/9 1500 м
[Sc Ac As]
+14.1 -8.6 20 +12 +12 1030.0 975.8
09 13.08 С 6 20 км 10/3 1500 м
[Sc Ac cuf]
+12.8 -7.7 23 +11 +11 1029.5 975.0
12 13.08 С 12 15 км пыльный позёмок 9/0
[Ac As]
+12.8 -5.8 27 +10 +10 1031.2 976.4 +11.8 +18.0
15 13.08 С 12 15 км пыльный позёмок 1/0
[Ac As]
+15.6 -1.9 30 +13 +13 1032.3 977.4
18 13.08 С 12 15 км пыльный позёмок ясно +16.8 -2.7 26 +15 +15 1028.4 973.8
21 13.08 С 12 15 км пыльный позёмок 8/0
[Cs]
+14.4 -1.9 32 +12 +12 1028.1 973.2
00 14.08 С 10 15 км пыльный позёмок 3/0
[Cs]
+11.8 -2.0 38 +8 +8 1029.9 974.6 +11.8 +18.0
03 14.08 С 9 20 км ясно +11.0 -1.9 41 +8 +8 1030.7 975.6
06 14.08 С 10 20 км 6/0
[Cc]
+10.2 -2.5 41 +6 +6 1028.7 973.7
09 14.08 С 11 20 км 9/0
[Cs]
+10.7 -2.4 40 +7 +7 1026.6 971.6
12 14.08 С 12 20 км 9/0
[Cs]
+9.8 -1.7 45 +5 +5 1026.4 971.0 +9.3 +12.6
15 14.08 С 15 5000 м пыльный позёмок 5/0
[Cs]
+15.0 -1.5 32 +12 +12 1023.4 968.6
18 14.08 С 17 1600 м пыльный позёмок 1/0
[Cs]
+19.0 -1.4 25 +17 +17 1017.7 963.4
21 14.08 С 14 2000 м пыльный позёмок 6/0
[Cs]
+16.6 +0.6 34 +15 +15 1016.4 962.1
00 15.08 С 9 15 км пыльный позёмок 6/0
[Cs]
+15.4 -0.1 35 +13 +13 1017.5 963.0 +9.8 +19.4
03 15.08 С 8 20 км 4/0
[Cs]
+13.6 -0.4 38 +11 +11 1017.2 963.0
06 15.08 С 5 20 км 8/0
[Cs]
+10.2 -1.1 45 +8 +8 1016.4 962.2
09 15.08 ЮЗ 2 20 км 5/0
[Cs]
+6.2 -0.4 63 +4 +4 1016.9 962.2
12 15.08 СЗ 1 20 км 9/0
[Cs]
+2.8 -3.5 63 +2 +3 1019.4 964.1 +0.8 +15.4
15 15.08 В 2 20 км 9/0
[Cs]
+14.0 -2.6 32 +14 +22 1018.2 963.8
18 15.08 Ю 4 20 км 8/0
[Cs]
+19.6 -1.7 24 +20 +26 1013.8 959.8
21 15.08 ЮЗ 2 20 км 6/0
[Cs]
+20.0 -1.7 23 +21 +21 комфорт 1013.2 959.0
00 16.08 ЮВ 1 20 км 5/0
[Cs]
+9.2 -1.3 48 +9 +9 1016.5 960.8 +2.8 +21.0
03 16.08 СВ 1 20 км 9/0
[Cs]
+6.6 -0.4 61 +6 +6 1017.1 962.2
06 16.08 С 3 20 км 6/0
[Cs]
+6.6 +1.8 71 +4 +4 1014.2 959.8
09 16.08 С 3 20 км 8/0
[Cs]
+5.4 +1.0 73 +3 +3 1012.5 958.2
12 16.08 С 2 20 км 5/0
[Cs]
+7.2 +0.3 62 +6 +7 1012.5 957.4 +4.8 +9.2
15 16.08 З 2 20 км 5/0
[Cs]
+16.3 -4.1 24 +17 +27 1011.0 956.6
18 16.08 ЮВ 2 20 км 6/0
[Cs]
+23.3 -0.5 21 +22 +31 комфорт 1006.5 953.0
21 16.08 Ю 2 20 км 3/0
[Cs]
+23.3 -0.5 21 +22 +23 комфорт 1004.7 951.2
00 17.08 С 3 20 км ясно +14.4 +0.9 40 +14 +14 1007.1 952.8 +7.0 +24.7
03 17.08 С 2 20 км ясно +11.9 +3.4 56 +11 +11 1007.0 953.3
06 17.08 В 1 20 км 8/0
[Cs]
+7.8 +2.7 70 +7 +7 1006.1 952.6
09 17.08 С 4 20 км 8/0
[Cs]
+8.4 +2.0 64 +5 +5 1005.5 952.2
12 17.08 С 3 20 км 5/0
[Cc]
+5.8 +1.4 73 +3 +4 1012.7 958.0 +4.3 +14.4
15 17.08 СВ 2 20 км 3/0
[Cc]
+19.6 +1.9 31 +21 +32 комфорт 1012.0 958.2
18 17.08 штиль 0 20 км 8/0
[Cc]
+23.2 +1.1 23 +22 +34 комфорт 1010.0 956.4
21 17.08 штиль 0 20 км 9/0
[Cs]
+25.0 +1.2 21 +24 +25 комфорт 1009.3 956.0
00 18.08 С 3 20 км 9/0
[Cs]
+16.0 +1.6 38 +16 +16 1014.4 959.7 +5.8 +26.2
03 18.08 С 4 20 км 6/0
[Cs]
+18.8 +6.9 46 +19 +19 1014.2 961.0
06 18.08 С 5 20 км 4/0
[Ac cuf]
+18.0 +6.3 46 +18 +18 1014.3 961.4
09 18.08 С 7 20 км 3/0
[Ac cuf]
+17.0 -1.5 28 +16 +16 1015.3 962.4
12 18.08 С 6 20 км 3/0
[Ac As]
+17.6 -2.7 25 +17 +17 1018.6 964.8 +13.9 +20.0
15 18.08 С 9 20 км ясно +22.6 -0.1 22 +22 +23 комфорт 1020.0 966.8
18 18.08 СВ 8 20 км ясно +24.2 -4.0 15 +22 +24 комфорт 1017.5 964.5
21 18.08 С 9 20 км 1/0
[Cs]
+21.9 +1.0 25 +21 +22 комфорт 1018.1 964.8
00 19.08 С 4 20 км 1/1 1500 м
[Sc]
+17.2 +0.3 32 +17 +17 1022.1 968.2 +16.6 +25.0
03 19.08 СВ 9 20 км 6/6 1200 м
[Sc]
+15.6 +1.5 38 +14 +14 1023.1 969.4
06 19.08 С 7 20 км 6/3 1200 м
[Sc Cs]
+13.6 +4.9 56 +11 +11 1023.0 969.3
09 19.08 С 12 20 км 5/0
[Cs]
+13.2 +4.9 57 +10 +10 1021.0 967.2

 

Местоположение метеостанции Сан-Фернандо-дель-Валье-де-Катамарка (Аргентина): широта -28.60 долгота -65.76 высота над уровнем моря 454 м.

В архиве по умолчанию представлена погода в Сан-Фернандо-дель-Валье-де-Катамарке за последнюю неделю. Архивные данные за месяц целиком и за предыдущие месяцы, начиная с января 2011 года, Вы можете получить, выбрав интересующий диапазон дат из раскрывающегося списка и нажав кнопку "Ввод!".


*Определитесь, кто Вы:
робот инопланетянин человек

Внимание! Время в таблицах - всемирное. Для получения местного времени необходимо прибавить поправку, которая равна -3 ч.

Смотрите также архив погоды в соседних городах и на ближайших метеорологических станциях:

Погода в Ла-Риохе (Аргентина) (134 км)
Погода в Сантьяго-дель-Эстеро (Аргентина) (171 км)
Погода в Чамикале (Аргентина) (202 км)
Погода в Сан-Мигель-де-Тукумане (Аргентина) (206 км)
Погода в Вилла де Мария дель Рио Секо (Аргентина) (248 км)
Погода в Кордове (Аргентина) (336 км)
Погода в Вилла Долорес (Аргентина) (377 км)
Погода в Пиларе (Аргентина) (385 км)
Погода в Сересе (Аргентина) (396 км)
Погода в Сан-Хуане (Аргентина) (403 км)

Пояснения к столбцам:

Ветер - указаны скорость ветра в м/с - средняя за 10 мин, порывы в срок и между сроками (в фигурных скобках) и направление, откуда дует ветер: С - северный, СВ - северо-восточный, В - восточный, ЮВ - юго-восточный, Ю - южный, ЮЗ - юго-западный, З - западный, СЗ - северо-западный.
Видимость - горизонтальная дальность видимости в метрах или километрах. При видимости от 1 до 10 км при отсутствии осадков обычно наблюдается дымка, при ухудшении видимости до 1 км и менее - туман. В сухую погоду видимость может ухудшаться дымом, пылью или мглою.
Явления - указаны атмосферные явления, наблюдавшиеся в срок или в последний час перед сроком; фигурными скобками обозначены явления, наблюдавшиеся между сроками (за 1-3 часа до срока); квадратными скобками обозначены град или гололедные отложения с указанием их диаметра в мм.
Облачность - указаны через наклонную черту общая и нижняя облачность в баллах и высота нижней границы облаков в метрах; квадратными скобками обозначены формы облаков: Ci - перистые, Cs - перисто-слоистые, Cc - перисто-кучевые, Ac - высококучевые, As - высокослоистые, Sc - слоисто-кучевые, Ns - слоисто-дождевые, Cu - кучевые, Cb - кучево-дождевые. Подробнее классификацию облаков см. в Атласе облаков (PDF).
T - Температура воздуха - температура, измеренная на высоте 2 м над землей.
Td - Температура точки росы - температура, при понижении до которой содержащийся в воздухе водяной пар достигнет насыщения.
f - Относительная влажность воздуха - влажноcть воздуха, измеренная на высоте 2 м над землей.
Te - Эффективная температура - температура, которую ощущает одетый по сезону человек в тени. Характеристика душности погоды. При расчете учитывается влияние влажности воздуха и скорости ветра на теплоощущения человека.
Tes - Эффективная температура на солнце - температура, которую ощущает человек, с поправкой на солнечный нагрев. Характеристика знойности погоды. Зависит от высоты солнца над горизонтом, облачности и скорости ветра. Ночью, в пасмурную погоду, а также при ветре 12 м/с и более поправка равна нулю.
P - Атмосферное давление - приведенное к уровню моря атмосферное давление.
Po - Атмосферное давление - измеренное на уровне метеостанции атмосферное давление.
Tmin - Минимальная температура - минимум температуры воздуха на высоте 2 м над землей.
Tmax - Максимальная температура - максимум температуры воздуха на высоте 2 м над землей.
R - Количество осадков - Количество выпавших осадков за период времени, мм. При наведении курсора мыши на число - период времени, за который выпало указанное количество осадков.
R24 - Количество осадков - Количество выпавших осадков за 24 часа, мм.
S - Снежный покров - Высота снежного покрова, см. При наведении курсора мыши на число - состояние снежного покрова и степень покрытия местности в баллах.